owner,sensor,date,latitude,longitude,air_temperature,qcFlag 
LOOP,urn:ioos:station:wmo:lopl1:1,2011-09-01T00:12:00Z,28.8850,-90.0250,30.0,11111222 
LOOP,urn:ioos:station:wmo:lopl1:1,2011-09-01T00:27:00Z,28.8850,-90.0250,29.1,11111222 
LOOP,urn:ioos:station:wmo:lopl1:1,2011-09-01T00:42:00Z,28.8850,-90.0250,29.3,11111222 
LOOP,urn:ioos:station:wmo:lopl1:1,2011-09-01T00:57:00Z,28.8850,-90.0250,29.4,11111222 
LOOP,urn:ioos:station:wmo:lopl1:1,2011-09-01T01:12:00Z,28.8850,-90.0250,29.4,11111222 
LOOP,urn:ioos:station:wmo:lopl1:1,2011-09-01T01:27:00Z,28.8850,-90.0250,29.5,11111222 
LOOP,urn:ioos:station:wmo:lopl1:1,2011-09-01T01:42:00Z,28.8850,-90.0250,29.6,11111222 
LOOP,urn:ioos:station:wmo:lopl1:1,2011-09-01T01:57:00Z,28.8850,-90.0250,30.1,11111222 
LOOP,urn:ioos:station:wmo:lopl1:1,2011-09-01T02:12:00Z,28.8850,-90.0250,30.2,11111222 
LOOP,urn:ioos:station:wmo:lopl1:1,2011-09-01T02:27:00Z,28.8850,-90.0250,30.0,11111222 
LOOP,urn:ioos:station:wmo:lopl1:1,2011-09-01T02:47:00Z,28.8850,-90.0250,30.1,11111222 
LOOP,urn:ioos:station:wmo:lopl1:1,2011-09-01T03:02:00Z,28.8850,-90.0250,30.2,11111222 
LOOP,urn:ioos:station:wmo:lopl1:1,2011-09-01T03:17:00Z,28.8850,-90.0250,29.8,11111222 
LOOP,urn:ioos:station:wmo:lopl1:1,2011-09-01T03:32:00Z,28.8850,-90.0250,29.7,11111222 
LOOP,urn:ioos:station:wmo:lopl1:1,2011-09-01T03:47:00Z,28.8850,-90.0250,29.9,11111222 
LOOP,urn:ioos:station:wmo:lopl1:1,2011-09-01T04:02:00Z,28.8850,-90.0250,29.9,11111222 
LOOP,urn:ioos:station:wmo:lopl1:1,2011-09-01T04:17:00Z,28.8850,-90.0250,29.9,11111222 
LOOP,urn:ioos:station:wmo:lopl1:1,2011-09-01T04:32:00Z,28.8850,-90.0250,29.0,11111222 
LOOP,urn:ioos:station:wmo:lopl1:1,2011-09-01T04:47:00Z,28.8850,-90.0250,29.0,11111222 
LOOP,urn:ioos:station:wmo:lopl1:1,2011-09-01T05:03:00Z,28.8850,-90.0250,29.5,11111222 
LOOP,urn:ioos:station:wmo:lopl1:1,2011-09-01T05:18:00Z,28.8850,-90.0250,29.6,11111222 
LOOP,urn:ioos:station:wmo:lopl1:1,2011-09-01T05:33:00Z,28.8850,-90.0250,29.9,11111222 
LOOP,urn:ioos:station:wmo:lopl1:1,2011-09-01T05:48:00Z,28.8850,-90.0250,29.8,11111222 
LOOP,urn:ioos:station:wmo:lopl1:1,2011-09-01T06:03:00Z,28.8850,-90.0250,30.0,11111222 
LOOP,urn:ioos:station:wmo:lopl1:1,2011-09-01T06:18:00Z,28.8850,-90.0250,30.0,11111222 
LOOP,urn:ioos:station:wmo:lopl1:1,2011-09-01T06:33:00Z,28.8850,-90.0250,29.8,11111222 
LOOP,urn:ioos:station:wmo:lopl1:1,2011-09-01T06:48:00Z,28.8850,-90.0250,29.8,11111222 
LOOP,urn:ioos:station:wmo:lopl1:1,2011-09-01T07:03:00Z,28.8850,-90.0250,29.7,11111222 
LOOP,urn:ioos:station:wmo:lopl1:1,2011-09-01T07:18:00Z,28.8850,-90.0250,29.6,11111222 
LOOP,urn:ioos:station:wmo:lopl1:1,2011-09-01T07:33:00Z,28.8850,-90.0250,29.6,11111222 
LOOP,urn:ioos:station:wmo:lopl1:1,2011-09-01T07:48:00Z,28.8850,-90.0250,29.7,11111222 
LOOP,urn:ioos:station:wmo:lopl1:1,2011-09-01T08:03:00Z,28.8850,-90.0250,29.6,11111222 
LOOP,urn:ioos:station:wmo:lopl1:1,2011-09-01T08:18:00Z,28.8850,-90.0250,29.1,11111222 
LOOP,urn:ioos:station:wmo:lopl1:1,2011-09-01T08:33:00Z,28.8850,-90.0250,29.1,11111222 
LOOP,urn:ioos:station:wmo:lopl1:1,2011-09-01T09:03:00Z,28.8850,-90.0250,29.4,11111222 
LOOP,urn:ioos:station:wmo:lopl1:1,2011-09-01T09:18:00Z,28.8850,-90.0250,29.7,11111222 
LOOP,urn:ioos:station:wmo:lopl1:1,2011-09-01T09:33:00Z,28.8850,-90.0250,29.5,11111222 
LOOP,urn:ioos:station:wmo:lopl1:1,2011-09-01T09:48:00Z,28.8850,-90.0250,29.5,11111222 
LOOP,urn:ioos:station:wmo:lopl1:1,2011-09-01T10:03:00Z,28.8850,-90.0250,29.6,11111222 
LOOP,urn:ioos:station:wmo:lopl1:1,2011-09-01T10:18:00Z,28.8850,-90.0250,29.6,11111222 
LOOP,urn:ioos:station:wmo:lopl1:1,2011-09-01T10:33:00Z,28.8850,-90.0250,29.6,11111222 
LOOP,urn:ioos:station:wmo:lopl1:1,2011-09-01T10:48:00Z,28.8850,-90.0250,29.6,11111222 
LOOP,urn:ioos:station:wmo:lopl1:1,2011-09-01T11:03:00Z,28.8850,-90.0250,29.6,11111222 
LOOP,urn:ioos:station:wmo:lopl1:1,2011-09-01T11:18:00Z,28.8850,-90.0250,29.6,11111222 
LOOP,urn:ioos:station:wmo:lopl1:1,2011-09-01T11:33:00Z,28.8850,-90.0250,29.5,11111222 
LOOP,urn:ioos:station:wmo:lopl1:1,2011-09-01T11:48:00Z,28.8850,-90.0250,29.5,11111222 
LOOP,urn:ioos:station:wmo:lopl1:1,2011-09-01T12:03:00Z,28.8850,-90.0250,29.5,11111222 
LOOP,urn:ioos:station:wmo:lopl1:1,2011-09-01T12:18:00Z,28.8850,-90.0250,29.2,11111222 
LOOP,urn:ioos:station:wmo:lopl1:1,2011-09-01T12:33:00Z,28.8850,-90.0250,28.8,11111222 
LOOP,urn:ioos:station:wmo:lopl1:1,2011-09-01T12:48:00Z,28.8850,-90.0250,29.1,11111222 
LOOP,urn:ioos:station:wmo:lopl1:1,2011-09-01T13:03:00Z,28.8850,-90.0250,29.1,11111222 
LOOP,urn:ioos:station:wmo:lopl1:1,2011-09-01T13:18:00Z,28.8850,-90.0250,29.2,11111222 
LOOP,urn:ioos:station:wmo:lopl1:1,2011-09-01T13:33:00Z,28.8850,-90.0250,28.8,11111222 
LOOP,urn:ioos:station:wmo:lopl1:1,2011-09-01T13:48:00Z,28.8850,-90.0250,28.9,11111222 
LOOP,urn:ioos:station:wmo:lopl1:1,2011-09-01T14:03:00Z,28.8850,-90.0250,28.9,11111222 
LOOP,urn:ioos:station:wmo:lopl1:1,2011-09-01T14:18:00Z,28.8850,-90.0250,28.8,11111222 
LOOP,urn:ioos:station:wmo:lopl1:1,2011-09-01T14:33:00Z,28.8850,-90.0250,29.1,11111222 
LOOP,urn:ioos:station:wmo:lopl1:1,2011-09-01T14:48:00Z,28.8850,-90.0250,28.1,11111222 
LOOP,urn:ioos:station:wmo:lopl1:1,2011-09-01T15:03:00Z,28.8850,-90.0250,26.6,11111222 
LOOP,urn:ioos:station:wmo:lopl1:1,2011-09-01T15:18:00Z,28.8850,-90.0250,27.2,11111222 
LOOP,urn:ioos:station:wmo:lopl1:1,2011-09-01T15:33:00Z,28.8850,-90.0250,27.6,11111222 
LOOP,urn:ioos:station:wmo:lopl1:1,2011-09-01T15:48:00Z,28.8850,-90.0250,26.9,11111222 
LOOP,urn:ioos:station:wmo:lopl1:1,2011-09-01T16:03:00Z,28.8850,-90.0250,25.7,11111222 
LOOP,urn:ioos:station:wmo:lopl1:1,2011-09-01T16:23:00Z,28.8850,-90.0250,27.1,11111222 
LOOP,urn:ioos:station:wmo:lopl1:1,2011-09-01T16:38:00Z,28.8850,-90.0250,27.6,11111222 
LOOP,urn:ioos:station:wmo:lopl1:1,2011-09-01T16:53:00Z,28.8850,-90.0250,28.5,11111222 
LOOP,urn:ioos:station:wmo:lopl1:1,2011-09-01T17:08:00Z,28.8850,-90.0250,27.3,11111222 
LOOP,urn:ioos:station:wmo:lopl1:1,2011-09-01T17:23:00Z,28.8850,-90.0250,27.4,11111222 
LOOP,urn:ioos:station:wmo:lopl1:1,2011-09-01T17:38:00Z,28.8850,-90.0250,27.3,11111222 
LOOP,urn:ioos:station:wmo:lopl1:1,2011-09-01T17:53:00Z,28.8850,-90.0250,27.4,11111222 
LOOP,urn:ioos:station:wmo:lopl1:1,2011-09-01T18:08:00Z,28.8850,-90.0250,27.6,11111222 
LOOP,urn:ioos:station:wmo:lopl1:1,2011-09-01T18:23:00Z,28.8850,-90.0250,28.1,11111222 
LOOP,urn:ioos:station:wmo:lopl1:1,2011-09-01T18:38:00Z,28.8850,-90.0250,28.0,11111222 
LOOP,urn:ioos:station:wmo:lopl1:1,2011-09-01T18:53:00Z,28.8850,-90.0250,27.9,11111222 
LOOP,urn:ioos:station:wmo:lopl1:1,2011-09-01T19:08:00Z,28.8850,-90.0250,28.1,11111222 
LOOP,urn:ioos:station:wmo:lopl1:1,2011-09-01T19:23:00Z,28.8850,-90.0250,28.3,11111222 
LOOP,urn:ioos:station:wmo:lopl1:1,2011-09-01T19:38:00Z,28.8850,-90.0250,28.0,11111222 
LOOP,urn:ioos:station:wmo:lopl1:1,2011-09-01T19:53:00Z,28.8850,-90.0250,28.0,11111222 
LOOP,urn:ioos:station:wmo:lopl1:1,2011-09-01T20:08:00Z,28.8850,-90.0250,27.9,11111222 
LOOP,urn:ioos:station:wmo:lopl1:1,2011-09-01T20:23:00Z,28.8850,-90.0250,27.6,11111222 
LOOP,urn:ioos:station:wmo:lopl1:1,2011-09-01T20:38:00Z,28.8850,-90.0250,27.2,11111222 
LOOP,urn:ioos:station:wmo:lopl1:1,2011-09-01T20:53:00Z,28.8850,-90.0250,27.4,11111222 
LOOP,urn:ioos:station:wmo:lopl1:1,2011-09-01T21:08:00Z,28.8850,-90.0250,27.6,11111222 
LOOP,urn:ioos:station:wmo:lopl1:1,2011-09-01T21:23:00Z,28.8850,-90.0250,26.5,11111222 
LOOP,urn:ioos:station:wmo:lopl1:1,2011-09-01T21:38:00Z,28.8850,-90.0250,26.9,11111222 
LOOP,urn:ioos:station:wmo:lopl1:1,2011-09-01T21:53:00Z,28.8850,-90.0250,27.1,11111222 
LOOP,urn:ioos:station:wmo:lopl1:1,2011-09-01T22:08:00Z,28.8850,-90.0250,27.3,11111222 
LOOP,urn:ioos:station:wmo:lopl1:1,2011-09-01T22:23:00Z,28.8850,-90.0250,27.4,11111222 
LOOP,urn:ioos:station:wmo:lopl1:1,2011-09-01T22:38:00Z,28.8850,-90.0250,27.6,11111222 
LOOP,urn:ioos:station:wmo:lopl1:1,2011-09-01T22:53:00Z,28.8850,-90.0250,27.5,11111222 
LOOP,urn:ioos:station:wmo:lopl1:1,2011-09-01T23:08:00Z,28.8850,-90.0250,27.5,11111222 
LOOP,urn:ioos:station:wmo:lopl1:1,2011-09-01T23:23:00Z,28.8850,-90.0250,27.5,11111222 
LOOP,urn:ioos:station:wmo:lopl1:1,2011-09-01T23:38:00Z,28.8850,-90.0250,27.6,11111222 
LOOP,urn:ioos:station:wmo:lopl1:1,2011-09-01T23:53:00Z,28.8850,-90.0250,27.8,11111222 
LOOP,urn:ioos:station:wmo:lopl1:1,2011-09-02T00:08:00Z,28.8850,-90.0250,26.9,11111222 
LOOP,urn:ioos:station:wmo:lopl1:1,2011-09-02T00:23:00Z,28.8850,-90.0250,26.8,11111222 
LOOP,urn:ioos:station:wmo:lopl1:1,2011-09-02T00:38:00Z,28.8850,-90.0250,27.7,11111222 
LOOP,urn:ioos:station:wmo:lopl1:1,2011-09-02T00:53:00Z,28.8850,-90.0250,28.0,11111222 
LOOP,urn:ioos:station:wmo:lopl1:1,2011-09-02T01:08:00Z,28.8850,-90.0250,27.4,11111222 
LOOP,urn:ioos:station:wmo:lopl1:1,2011-09-02T01:23:00Z,28.8850,-90.0250,27.7,11111222 
LOOP,urn:ioos:station:wmo:lopl1:1,2011-09-02T01:38:00Z,28.8850,-90.0250,27.9,11111222 
LOOP,urn:ioos:station:wmo:lopl1:1,2011-09-02T01:53:00Z,28.8850,-90.0250,28.1,11111222 
LOOP,urn:ioos:station:wmo:lopl1:1,2011-09-02T02:08:00Z,28.8850,-90.0250,27.9,11111222 
LOOP,urn:ioos:station:wmo:lopl1:1,2011-09-02T02:23:00Z,28.8850,-90.0250,27.7,11111222 
LOOP,urn:ioos:station:wmo:lopl1:1,2011-09-02T02:38:00Z,28.8850,-90.0250,28.0,11111222 
LOOP,urn:ioos:station:wmo:lopl1:1,2011-09-02T02:53:00Z,28.8850,-90.0250,28.0,11111222 
LOOP,urn:ioos:station:wmo:lopl1:1,2011-09-02T03:08:00Z,28.8850,-90.0250,27.4,11111222 
LOOP,urn:ioos:station:wmo:lopl1:1,2011-09-02T03:23:00Z,28.8850,-90.0250,27.6,11111222 
LOOP,urn:ioos:station:wmo:lopl1:1,2011-09-02T03:43:00Z,28.8850,-90.0250,27.5,11111222 
LOOP,urn:ioos:station:wmo:lopl1:1,2011-09-02T03:58:00Z,28.8850,-90.0250,27.6,11111222 
LOOP,urn:ioos:station:wmo:lopl1:1,2011-09-02T04:13:00Z,28.8850,-90.0250,27.6,11111222 
LOOP,urn:ioos:station:wmo:lopl1:1,2011-09-02T04:28:00Z,28.8850,-90.0250,27.7,11111222 
LOOP,urn:ioos:station:wmo:lopl1:1,2011-09-02T04:43:00Z,28.8850,-90.0250,26.4,11111222 
LOOP,urn:ioos:station:wmo:lopl1:1,2011-09-02T04:58:00Z,28.8850,-90.0250,26.9,11111222 
LOOP,urn:ioos:station:wmo:lopl1:1,2011-09-02T05:13:00Z,28.8850,-90.0250,27.1,11111222 
LOOP,urn:ioos:station:wmo:lopl1:1,2011-09-02T05:28:00Z,28.8850,-90.0250,27.0,11111222 
LOOP,urn:ioos:station:wmo:lopl1:1,2011-09-02T05:43:00Z,28.8850,-90.0250,27.2,11111222 
LOOP,urn:ioos:station:wmo:lopl1:1,2011-09-02T05:58:00Z,28.8850,-90.0250,27.3,11111222 
LOOP,urn:ioos:station:wmo:lopl1:1,2011-09-02T06:13:00Z,28.8850,-90.0250,27.5,11111222 
LOOP,urn:ioos:station:wmo:lopl1:1,2011-09-02T06:28:00Z,28.8850,-90.0250,27.6,11111222 
LOOP,urn:ioos:station:wmo:lopl1:1,2011-09-02T06:43:00Z,28.8850,-90.0250,27.8,11111222 
LOOP,urn:ioos:station:wmo:lopl1:1,2011-09-02T06:58:00Z,28.8850,-90.0250,28.0,11111222 
LOOP,urn:ioos:station:wmo:lopl1:1,2011-09-02T07:13:00Z,28.8850,-90.0250,27.9,11111222 
LOOP,urn:ioos:station:wmo:lopl1:1,2011-09-02T07:28:00Z,28.8850,-90.0250,27.9,11111222 
LOOP,urn:ioos:station:wmo:lopl1:1,2011-09-02T07:43:00Z,28.8850,-90.0250,27.8,11111222 
LOOP,urn:ioos:station:wmo:lopl1:1,2011-09-02T07:58:00Z,28.8850,-90.0250,28.0,11111222 
LOOP,urn:ioos:station:wmo:lopl1:1,2011-09-02T08:13:00Z,28.8850,-90.0250,28.1,11111222 
LOOP,urn:ioos:station:wmo:lopl1:1,2011-09-02T08:28:00Z,28.8850,-90.0250,28.0,11111222 
LOOP,urn:ioos:station:wmo:lopl1:1,2011-09-02T08:43:00Z,28.8850,-90.0250,27.9,11111222 
LOOP,urn:ioos:station:wmo:lopl1:1,2011-09-02T08:58:00Z,28.8850,-90.0250,28.0,11111222 
LOOP,urn:ioos:station:wmo:lopl1:1,2011-09-02T09:13:00Z,28.8850,-90.0250,28.0,11111222 
LOOP,urn:ioos:station:wmo:lopl1:1,2011-09-02T09:28:00Z,28.8850,-90.0250,27.9,11111222 
LOOP,urn:ioos:station:wmo:lopl1:1,2011-09-02T09:43:00Z,28.8850,-90.0250,28.0,11111222 
LOOP,urn:ioos:station:wmo:lopl1:1,2011-09-02T09:58:00Z,28.8850,-90.0250,27.9,11111222 
LOOP,urn:ioos:station:wmo:lopl1:1,2011-09-02T10:13:00Z,28.8850,-90.0250,27.7,11111222 
LOOP,urn:ioos:station:wmo:lopl1:1,2011-09-02T10:28:00Z,28.8850,-90.0250,27.7,11111222 
LOOP,urn:ioos:station:wmo:lopl1:1,2011-09-02T10:43:00Z,28.8850,-90.0250,27.7,11111222 
LOOP,urn:ioos:station:wmo:lopl1:1,2011-09-02T10:58:00Z,28.8850,-90.0250,27.8,11111222 
LOOP,urn:ioos:station:wmo:lopl1:1,2011-09-02T11:13:00Z,28.8850,-90.0250,28.1,11111222 
LOOP,urn:ioos:station:wmo:lopl1:1,2011-09-02T11:28:00Z,28.8850,-90.0250,28.3,11111222 
LOOP,urn:ioos:station:wmo:lopl1:1,2011-09-02T11:43:00Z,28.8850,-90.0250,28.0,11111222 
LOOP,urn:ioos:station:wmo:lopl1:1,2011-09-02T12:03:00Z,28.8850,-90.0250,27.9,11111222 
LOOP,urn:ioos:station:wmo:lopl1:1,2011-09-02T12:18:00Z,28.8850,-90.0250,27.8,11111222 
LOOP,urn:ioos:station:wmo:lopl1:1,2011-09-02T12:33:00Z,28.8850,-90.0250,27.9,11111222 
LOOP,urn:ioos:station:wmo:lopl1:1,2011-09-02T12:48:00Z,28.8850,-90.0250,25.9,11111222 
LOOP,urn:ioos:station:wmo:lopl1:1,2011-09-02T13:03:00Z,28.8850,-90.0250,27.0,11111222 
LOOP,urn:ioos:station:wmo:lopl1:1,2011-09-02T13:18:00Z,28.8850,-90.0250,27.1,11111222 
LOOP,urn:ioos:station:wmo:lopl1:1,2011-09-02T13:33:00Z,28.8850,-90.0250,26.2,11111222 
LOOP,urn:ioos:station:wmo:lopl1:1,2011-09-02T13:48:00Z,28.8850,-90.0250,25.4,11111222 
LOOP,urn:ioos:station:wmo:lopl1:1,2011-09-02T14:03:00Z,28.8850,-90.0250,25.2,11111222 
LOOP,urn:ioos:station:wmo:lopl1:1,2011-09-02T14:18:00Z,28.8850,-90.0250,25.2,11111222 
LOOP,urn:ioos:station:wmo:lopl1:1,2011-09-02T14:33:00Z,28.8850,-90.0250,25.9,11111222 
LOOP,urn:ioos:station:wmo:lopl1:1,2011-09-02T14:48:00Z,28.8850,-90.0250,26.5,11111222 
LOOP,urn:ioos:station:wmo:lopl1:1,2011-09-02T15:03:00Z,28.8850,-90.0250,27.6,11111222 
LOOP,urn:ioos:station:wmo:lopl1:1,2011-09-02T15:18:00Z,28.8850,-90.0250,26.1,11111222 
LOOP,urn:ioos:station:wmo:lopl1:1,2011-09-02T15:33:00Z,28.8850,-90.0250,25.4,11111222 
LOOP,urn:ioos:station:wmo:lopl1:1,2011-09-02T15:48:00Z,28.8850,-90.0250,25.1,11111222 
LOOP,urn:ioos:station:wmo:lopl1:1,2011-09-02T16:03:00Z,28.8850,-90.0250,26.1,11111222 
LOOP,urn:ioos:station:wmo:lopl1:1,2011-09-02T16:18:00Z,28.8850,-90.0250,26.1,11111222 
LOOP,urn:ioos:station:wmo:lopl1:1,2011-09-02T16:33:00Z,28.8850,-90.0250,26.3,11111222 
LOOP,urn:ioos:station:wmo:lopl1:1,2011-09-02T16:48:00Z,28.8850,-90.0250,26.4,11111222 
LOOP,urn:ioos:station:wmo:lopl1:1,2011-09-02T17:03:00Z,28.8850,-90.0250,26.5,11111222 
LOOP,urn:ioos:station:wmo:lopl1:1,2011-09-02T17:18:00Z,28.8850,-90.0250,26.5,11111222 
LOOP,urn:ioos:station:wmo:lopl1:1,2011-09-02T17:33:00Z,28.8850,-90.0250,26.5,11111222 
LOOP,urn:ioos:station:wmo:lopl1:1,2011-09-02T17:48:00Z,28.8850,-90.0250,26.7,11111222 
LOOP,urn:ioos:station:wmo:lopl1:1,2011-09-02T18:03:00Z,28.8850,-90.0250,25.4,11111222 
LOOP,urn:ioos:station:wmo:lopl1:1,2011-09-02T18:18:00Z,28.8850,-90.0250,25.1,11111222 
LOOP,urn:ioos:station:wmo:lopl1:1,2011-09-02T18:33:00Z,28.8850,-90.0250,25.3,11111222 
LOOP,urn:ioos:station:wmo:lopl1:1,2011-09-02T18:48:00Z,28.8850,-90.0250,25.8,11111222 
LOOP,urn:ioos:station:wmo:lopl1:1,2011-09-02T19:03:00Z,28.8850,-90.0250,26.7,11111222 
LOOP,urn:ioos:station:wmo:lopl1:1,2011-09-02T19:18:00Z,28.8850,-90.0250,26.9,11111222 
LOOP,urn:ioos:station:wmo:lopl1:1,2011-09-02T19:33:00Z,28.8850,-90.0250,26.9,11111222 
LOOP,urn:ioos:station:wmo:lopl1:1,2011-09-02T19:48:00Z,28.8850,-90.0250,26.9,11111222 
LOOP,urn:ioos:station:wmo:lopl1:1,2011-09-02T20:03:00Z,28.8850,-90.0250,26.6,11111222 
LOOP,urn:ioos:station:wmo:lopl1:1,2011-09-02T20:18:00Z,28.8850,-90.0250,26.9,11111222 
LOOP,urn:ioos:station:wmo:lopl1:1,2011-09-02T20:33:00Z,28.8850,-90.0250,25.6,11111222 
LOOP,urn:ioos:station:wmo:lopl1:1,2011-09-02T20:48:00Z,28.8850,-90.0250,24.9,11111222 
LOOP,urn:ioos:station:wmo:lopl1:1,2011-09-02T21:03:00Z,28.8850,-90.0250,26.3,11111222 
LOOP,urn:ioos:station:wmo:lopl1:1,2011-09-02T21:18:00Z,28.8850,-90.0250,26.8,11111222 
LOOP,urn:ioos:station:wmo:lopl1:1,2011-09-02T21:33:00Z,28.8850,-90.0250,26.4,11111222 
LOOP,urn:ioos:station:wmo:lopl1:1,2011-09-02T21:48:00Z,28.8850,-90.0250,26.2,11111222 
LOOP,urn:ioos:station:wmo:lopl1:1,2011-09-02T22:03:00Z,28.8850,-90.0250,26.7,11111222 
LOOP,urn:ioos:station:wmo:lopl1:1,2011-09-02T22:18:00Z,28.8850,-90.0250,25.2,11111222 
LOOP,urn:ioos:station:wmo:lopl1:1,2011-09-02T22:33:00Z,28.8850,-90.0250,24.8,11111222 
LOOP,urn:ioos:station:wmo:lopl1:1,2011-09-02T22:48:00Z,28.8850,-90.0250,24.9,11111222 
LOOP,urn:ioos:station:wmo:lopl1:1,2011-09-02T23:03:00Z,28.8850,-90.0250,24.8,11111222 
LOOP,urn:ioos:station:wmo:lopl1:1,2011-09-02T23:18:00Z,28.8850,-90.0250,25.9,11111222 
LOOP,urn:ioos:station:wmo:lopl1:1,2011-09-02T23:33:00Z,28.8850,-90.0250,26.6,11111222 
LOOP,urn:ioos:station:wmo:lopl1:1,2011-09-02T23:48:00Z,28.8850,-90.0250,26.5,11111222 
LOOP,urn:ioos:station:wmo:lopl1:1,2011-09-03T00:03:00Z,28.8850,-90.0250,26.9,11111222 
LOOP,urn:ioos:station:wmo:lopl1:1,2011-09-03T00:23:00Z,28.8850,-90.0250,26.6,11111222 
LOOP,urn:ioos:station:wmo:lopl1:1,2011-09-03T00:38:00Z,28.8850,-90.0250,26.1,11111222 
LOOP,urn:ioos:station:wmo:lopl1:1,2011-09-03T00:53:00Z,28.8850,-90.0250,26.9,11111222 
LOOP,urn:ioos:station:wmo:lopl1:1,2011-09-03T01:08:00Z,28.8850,-90.0250,27.0,11111222 
LOOP,urn:ioos:station:wmo:lopl1:1,2011-09-03T01:23:00Z,28.8850,-90.0250,27.2,11111222 
LOOP,urn:ioos:station:wmo:lopl1:1,2011-09-03T01:38:00Z,28.8850,-90.0250,27.5,11111222 
LOOP,urn:ioos:station:wmo:lopl1:1,2011-09-03T01:53:00Z,28.8850,-90.0250,27.5,11111222 
LOOP,urn:ioos:station:wmo:lopl1:1,2011-09-03T02:08:00Z,28.8850,-90.0250,26.6,11111222 
LOOP,urn:ioos:station:wmo:lopl1:1,2011-09-03T02:23:00Z,28.8850,-90.0250,25.5,11111222 
LOOP,urn:ioos:station:wmo:lopl1:1,2011-09-03T02:38:00Z,28.8850,-90.0250,25.2,11111222 
LOOP,urn:ioos:station:wmo:lopl1:1,2011-09-03T02:53:00Z,28.8850,-90.0250,25.7,11111222 
LOOP,urn:ioos:station:wmo:lopl1:1,2011-09-03T03:08:00Z,28.8850,-90.0250,26.7,11111222 
LOOP,urn:ioos:station:wmo:lopl1:1,2011-09-03T03:23:00Z,28.8850,-90.0250,26.7,11111222 
LOOP,urn:ioos:station:wmo:lopl1:1,2011-09-03T03:38:00Z,28.8850,-90.0250,26.7,11111222 
LOOP,urn:ioos:station:wmo:lopl1:1,2011-09-03T03:53:00Z,28.8850,-90.0250,24.7,11111222 
LOOP,urn:ioos:station:wmo:lopl1:1,2011-09-03T04:08:00Z,28.8850,-90.0250,25.5,11111222 
LOOP,urn:ioos:station:wmo:lopl1:1,2011-09-03T04:23:00Z,28.8850,-90.0250,26.5,11111222 
LOOP,urn:ioos:station:wmo:lopl1:1,2011-09-03T04:38:00Z,28.8850,-90.0250,26.6,11111222 
LOOP,urn:ioos:station:wmo:lopl1:1,2011-09-03T04:53:00Z,28.8850,-90.0250,26.1,11111222 
LOOP,urn:ioos:station:wmo:lopl1:1,2011-09-03T05:09:00Z,28.8850,-90.0250,26.2,11111222 
LOOP,urn:ioos:station:wmo:lopl1:1,2011-09-03T05:24:00Z,28.8850,-90.0250,26.1,11111222 
LOOP,urn:ioos:station:wmo:lopl1:1,2011-09-03T05:39:00Z,28.8850,-90.0250,25.6,11111222 
LOOP,urn:ioos:station:wmo:lopl1:1,2011-09-03T05:54:00Z,28.8850,-90.0250,26.4,11111222 
LOOP,urn:ioos:station:wmo:lopl1:1,2011-09-03T06:09:00Z,28.8850,-90.0250,27.7,11111222 
LOOP,urn:ioos:station:wmo:lopl1:1,2011-09-03T06:24:00Z,28.8850,-90.0250,27.3,11111222 
LOOP,urn:ioos:station:wmo:lopl1:1,2011-09-03T06:39:00Z,28.8850,-90.0250,26.3,11111222 
LOOP,urn:ioos:station:wmo:lopl1:1,2011-09-03T06:54:00Z,28.8850,-90.0250,24.8,11111222 
LOOP,urn:ioos:station:wmo:lopl1:1,2011-09-03T07:09:00Z,28.8850,-90.0250,26.1,11111222 
LOOP,urn:ioos:station:wmo:lopl1:1,2011-09-03T07:24:00Z,28.8850,-90.0250,27.3,11111222 
LOOP,urn:ioos:station:wmo:lopl1:1,2011-09-03T07:39:00Z,28.8850,-90.0250,27.7,11111222 
LOOP,urn:ioos:station:wmo:lopl1:1,2011-09-03T07:54:00Z,28.8850,-90.0250,27.6,11111222 
LOOP,urn:ioos:station:wmo:lopl1:1,2011-09-03T08:09:00Z,28.8850,-90.0250,27.9,11111222 
LOOP,urn:ioos:station:wmo:lopl1:1,2011-09-03T08:24:00Z,28.8850,-90.0250,26.9,11111222 
LOOP,urn:ioos:station:wmo:lopl1:1,2011-09-03T08:39:00Z,28.8850,-90.0250,27.9,11111222 
LOOP,urn:ioos:station:wmo:lopl1:1,2011-09-03T08:54:00Z,28.8850,-90.0250,27.5,11111222 
LOOP,urn:ioos:station:wmo:lopl1:1,2011-09-03T09:09:00Z,28.8850,-90.0250,28.0,11111222 
LOOP,urn:ioos:station:wmo:lopl1:1,2011-09-03T09:24:00Z,28.8850,-90.0250,28.4,11111222 
LOOP,urn:ioos:station:wmo:lopl1:1,2011-09-03T09:39:00Z,28.8850,-90.0250,24.8,11111222 
LOOP,urn:ioos:station:wmo:lopl1:1,2011-09-03T09:54:00Z,28.8850,-90.0250,24.8,11111222 
LOOP,urn:ioos:station:wmo:lopl1:1,2011-09-03T10:09:00Z,28.8850,-90.0250,27.0,11111222 
LOOP,urn:ioos:station:wmo:lopl1:1,2011-09-03T10:24:00Z,28.8850,-90.0250,26.9,11111222 
LOOP,urn:ioos:station:wmo:lopl1:1,2011-09-03T10:39:00Z,28.8850,-90.0250,26.5,11111222 
LOOP,urn:ioos:station:wmo:lopl1:1,2011-09-03T10:54:00Z,28.8850,-90.0250,27.4,11111222 
LOOP,urn:ioos:station:wmo:lopl1:1,2011-09-03T11:09:00Z,28.8850,-90.0250,27.4,11111222 
LOOP,urn:ioos:station:wmo:lopl1:1,2011-09-03T11:24:00Z,28.8850,-90.0250,26.8,11111222 
LOOP,urn:ioos:station:wmo:lopl1:1,2011-09-03T11:39:00Z,28.8850,-90.0250,26.7,11111222 
LOOP,urn:ioos:station:wmo:lopl1:1,2011-09-03T11:59:00Z,28.8850,-90.0250,27.5,11111222 
LOOP,urn:ioos:station:wmo:lopl1:1,2011-09-03T12:14:00Z,28.8850,-90.0250,27.7,11111222 
LOOP,urn:ioos:station:wmo:lopl1:1,2011-09-03T12:29:00Z,28.8850,-90.0250,26.5,11111222 
LOOP,urn:ioos:station:wmo:lopl1:1,2011-09-03T12:44:00Z,28.8850,-90.0250,27.0,11111222 
LOOP,urn:ioos:station:wmo:lopl1:1,2011-09-03T12:59:00Z,28.8850,-90.0250,27.4,11111222 
LOOP,urn:ioos:station:wmo:lopl1:1,2011-09-03T13:14:00Z,28.8850,-90.0250,27.7,11111222 
LOOP,urn:ioos:station:wmo:lopl1:1,2011-09-03T13:29:00Z,28.8850,-90.0250,28.0,11111222 
LOOP,urn:ioos:station:wmo:lopl1:1,2011-09-03T13:44:00Z,28.8850,-90.0250,27.5,11111222 
LOOP,urn:ioos:station:wmo:lopl1:1,2011-09-03T13:59:00Z,28.8850,-90.0250,27.5,11111222 
LOOP,urn:ioos:station:wmo:lopl1:1,2011-09-03T14:14:00Z,28.8850,-90.0250,28.4,11111222 
LOOP,urn:ioos:station:wmo:lopl1:1,2011-09-03T14:29:00Z,28.8850,-90.0250,28.6,11111222 
LOOP,urn:ioos:station:wmo:lopl1:1,2011-09-03T14:44:00Z,28.8850,-90.0250,27.6,11111222 
LOOP,urn:ioos:station:wmo:lopl1:1,2011-09-03T14:59:00Z,28.8850,-90.0250,27.6,11111222 
LOOP,urn:ioos:station:wmo:lopl1:1,2011-09-03T15:14:00Z,28.8850,-90.0250,28.3,11111222 
LOOP,urn:ioos:station:wmo:lopl1:1,2011-09-03T15:29:00Z,28.8850,-90.0250,28.4,11111222 
LOOP,urn:ioos:station:wmo:lopl1:1,2011-09-03T15:44:00Z,28.8850,-90.0250,28.5,11111222 
LOOP,urn:ioos:station:wmo:lopl1:1,2011-09-03T15:59:00Z,28.8850,-90.0250,28.7,11111222 
LOOP,urn:ioos:station:wmo:lopl1:1,2011-09-03T16:14:00Z,28.8850,-90.0250,28.9,11111222 
LOOP,urn:ioos:station:wmo:lopl1:1,2011-09-03T16:29:00Z,28.8850,-90.0250,28.8,11111222 
LOOP,urn:ioos:station:wmo:lopl1:1,2011-09-03T16:44:00Z,28.8850,-90.0250,28.8,11111222 
LOOP,urn:ioos:station:wmo:lopl1:1,2011-09-03T16:59:00Z,28.8850,-90.0250,28.5,11111222 
LOOP,urn:ioos:station:wmo:lopl1:1,2011-09-03T17:14:00Z,28.8850,-90.0250,28.6,11111222 
LOOP,urn:ioos:station:wmo:lopl1:1,2011-09-03T17:29:00Z,28.8850,-90.0250,28.6,11111222 
LOOP,urn:ioos:station:wmo:lopl1:1,2011-09-03T17:44:00Z,28.8850,-90.0250,28.0,11111222 
LOOP,urn:ioos:station:wmo:lopl1:1,2011-09-03T17:59:00Z,28.8850,-90.0250,27.8,11111222 
LOOP,urn:ioos:station:wmo:lopl1:1,2011-09-03T18:14:00Z,28.8850,-90.0250,28.4,11111222 
LOOP,urn:ioos:station:wmo:lopl1:1,2011-09-03T18:29:00Z,28.8850,-90.0250,28.4,11111222 
LOOP,urn:ioos:station:wmo:lopl1:1,2011-09-03T18:44:00Z,28.8850,-90.0250,28.3,11111222 
LOOP,urn:ioos:station:wmo:lopl1:1,2011-09-03T18:59:00Z,28.8850,-90.0250,29.2,11111222 
LOOP,urn:ioos:station:wmo:lopl1:1,2011-09-03T19:14:00Z,28.8850,-90.0250,29.1,11111222 
LOOP,urn:ioos:station:wmo:lopl1:1,2011-09-03T19:29:00Z,28.8850,-90.0250,29.2,11111222 
LOOP,urn:ioos:station:wmo:lopl1:1,2011-09-03T19:44:00Z,28.8850,-90.0250,28.9,11111222 
LOOP,urn:ioos:station:wmo:lopl1:1,2011-09-03T19:59:00Z,28.8850,-90.0250,29.0,11111222 
LOOP,urn:ioos:station:wmo:lopl1:1,2011-09-03T20:14:00Z,28.8850,-90.0250,28.1,11111222 
LOOP,urn:ioos:station:wmo:lopl1:1,2011-09-03T20:29:00Z,28.8850,-90.0250,28.2,11111222 
LOOP,urn:ioos:station:wmo:lopl1:1,2011-09-03T20:44:00Z,28.8850,-90.0250,28.4,11111222 
LOOP,urn:ioos:station:wmo:lopl1:1,2011-09-03T20:59:00Z,28.8850,-90.0250,27.8,11111222 
LOOP,urn:ioos:station:wmo:lopl1:1,2011-09-03T21:14:00Z,28.8850,-90.0250,27.9,11111222 
LOOP,urn:ioos:station:wmo:lopl1:1,2011-09-03T21:29:00Z,28.8850,-90.0250,28.5,11111222 